Flag for Norway Weather past 2 weeks in Nesodden, Norway

Now
55 °F

Passing clouds.


Feels Like: 52 °F
Forecast: 48 / 68 °F
Wind: 15 mph from Northeast

Location: Oslo / Fornebu

Current Time: Aug 28, 2014 at 5:29:42 AM

Latest Report: Aug 28, 2014 at 4:50 AM


Visibility: N/A

Pressure: 29.98 "Hg

Humidity: 77%

Dew point: 48 °F

Location of NesoddenLocation

Historic Weather in Nesodden — Graph

°F

Nesodden temperature yesterday

Maximum temperature yesterday: 55 °F (at 11:20 PM)
Minimum temperature yesterday: 54 °F (at 12:20 AM)
Average temperature yesterday: 54 °F

Past Weeks' High & Low Weather Summary

 TemperatureHumidityPressure
High59 °F (Aug 13, 12:50 PM)100% (Aug 16, 4:50 PM)30.07 "Hg (Aug 16, 4:50 PM)
Low52 °F (Aug 16, 3:50 AM)59% (Aug 15, 9:50 AM)29.30 "Hg (Aug 13, 4:20 AM)
Average54 °F80%29.69 "Hg
* Reported Aug 13 4:20 AM — Aug 28 4:20 AM, Nesodden, Weather by CustomWeather, © 2014

Note: Actual official high and low records may vary slightly from our data, if they occured in-between our weather recording intervals... More about our weather records

Advertising

Nesodden weather history for previous 24 hours

 ConditionsComfort  
Time TempWeatherWind HumidityBarometerVisibility
4:20 AM
Aug 28
55 °FPassing clouds.16 mph72%29.98 "HgN/A
3:50 AM55 °FPassing clouds.16 mph72%29.98 "HgN/A
3:20 AM55 °FPassing clouds.17 mph77%29.98 "HgN/A
2:50 AM55 °FPassing clouds.15 mph72%29.98 "HgN/A
2:20 AM55 °FPassing clouds.16 mph72%30.01 "HgN/A
1:50 AM55 °FPassing clouds.16 mph72%30.01 "HgN/A
1:20 AM55 °FCool.17 mph72%30.01 "HgN/A
12:50 AM54 °FPassing clouds.N/A77%30.01 "HgN/A
12:20 AM55 °FPassing clouds.N/A72%30.01 "HgN/A
11:50 PM
Aug 27
54 °FPassing clouds.N/A77%30.01 "HgN/A
11:20 PM55 °FPassing clouds.N/A77%30.04 "HgN/A
10:50 PM54 °FPassing clouds.N/A77%30.04 "HgN/A
10:20 PM54 °FPassing clouds.N/A77%30.04 "HgN/A
9:50 PM54 °FPassing clouds.16 mph77%30.04 "HgN/A
9:20 PM54 °FPassing clouds.17 mph77%30.04 "HgN/A
8:50 PM54 °FCool.16 mph77%30.04 "HgN/A
7:50 PM54 °FCool.15 mph82%30.04 "HgN/A
7:20 PM54 °FCool.15 mph77%30.04 "HgN/A
6:50 PM54 °FCool.14 mph82%30.04 "HgN/A
6:20 PM54 °FCool.14 mph82%30.07 "HgN/A
5:50 PM54 °FCool.14 mph82%30.07 "HgN/A
4:50 PM54 °FCool.14 mph82%30.07 "HgN/A
4:20 PM54 °FCool.14 mph82%30.07 "HgN/A
3:50 PM54 °FCool.13 mph82%30.07 "HgN/A
3:20 PM54 °FCool.13 mph82%30.07 "HgN/A
2:50 PM54 °FPassing clouds.13 mph82%30.07 "HgN/A
2:20 PM54 °FPassing clouds.13 mph82%30.07 "HgN/A
1:50 PM54 °FScattered clouds.13 mph82%30.07 "HgN/A
1:20 PM54 °FScattered clouds.14 mph88%30.07 "HgN/A
12:50 PM54 °FPassing clouds.14 mph82%30.07 "HgN/A
12:20 PM54 °FPassing clouds.15 mph82%30.07 "HgN/A
11:50 AM54 °FCool.15 mph88%30.07 "HgN/A
11:20 AM54 °FPassing clouds.15 mph88%30.07 "HgN/A
10:50 AM54 °FPassing clouds.16 mph88%30.07 "HgN/A
10:20 AM54 °FPassing clouds.16 mph88%30.07 "HgN/A
9:50 AM54 °FScattered clouds.15 mph88%30.07 "HgN/A
9:20 AM54 °FScattered clouds.17 mph82%30.07 "HgN/A
8:50 AM54 °FPassing clouds.17 mph82%30.04 "HgN/A
8:20 AM54 °FPassing clouds.17 mph82%30.04 "HgN/A
7:50 AM54 °FScattered clouds.18 mph82%30.04 "HgN/A
7:20 AM54 °FScattered clouds.17 mph88%30.04 "HgN/A
6:50 AM54 °FPassing clouds.17 mph88%30.04 "HgN/A
6:20 AM54 °FPassing clouds.17 mph88%30.04 "HgN/A
5:50 AM54 °FPassing clouds.17 mph88%30.04 "HgN/A
5:20 AM54 °FPassing clouds.17 mph88%30.04 "HgN/A
Weather by CustomWeather, © 2014

See weather overviewHow to use our weather pages